Wind_Speed
18 19 18 15 14 15 14 14 14 15 15 15 15 16 16 17 16 13 15 18 17 17 17 16 17 18 18 18 19 19 20 19 18 18 19 19 17 18 17 13 12 13 15 13 11 10 9 8 9 10 10 10 9 10 11 10 12 10 3 4 5 6 6 4 7 5 1 1 2 6 8 4 6 7 1 2 4 5 8 7 11 17 9 6 12 20 32 32
18 19 19 17 16 15 15 15 15 15 15 15 15 15 16 16 16 15 14 16 17 16 17 17 15 17 19 19 19 19 19 18 19 20 18 18 18 16 17 19 19 16 16 15 12 12 12 9 8 9 11 10 8 10 12 11 13 8 2 4 7 5 4 3 5 4 2 3 7 11 10 4 7 8 3 3 3 8 7 5 10 10 5 9 16 27 35 33
18 18 18 18 17 17 16 16 16 15 15 15 15 15 16 16 16 16 15 16 17 15 17 18 15 16 19 20 19 18 17 17 18 19 17 17 18 18 17 19 22 21 19 17 13 12 13 11 8 9 12 10 8 12 12 11 12 7 4 6 7 4 2 4 5 5 6 8 9 11 9 6 7 7 3 3 5 8 9 9 11 11 13 15 24 35 36 34
20 19 18 18 18 18 18 18 17 16 16 16 16 15 15 16 16 15 16 16 16 15 16 18 16 14 17 19 17 15 15 14 13 14 15 15 15 17 19 19 21 24 23 20 16 11 12 13 9 9 12 7 7 12 10 12 11 6 7 6 2 5 4 6 7 7 8 8 7 10 11 9 7 5 2 4 6 6 11 15 11 12 20 23 31 39 36 34
20 21 20 19 19 19 19 18 18 18 17 17 16 16 16 16 16 15 15 15 15 14 16 18 16 14 16 19 17 13 10 7 5 11 13 13 13 14 18 20 21 24 24 22 19 13 11 13 12 12 10 4 6 8 7 14 12 5 7 4 3 6 4 5 6 6 8 7 7 9 9 10 8 5 3 6 8 5 9 17 11 10 21 27 35 40 36 35
20 21 21 21 20 20 19 19 19 19 20 20 19 17 16 16 16 16 16 16 15 14 14 16 16 13 15 19 18 12 6 4 3 10 13 9 9 9 14 19 21 23 24 24 21 16 13 15 14 12 8 4 7 7 6 15 13 5 6 4 5 7 4 5 7 7 9 7 6 8 9 11 9 7 5 9 12 7 5 13 15 12 18 26 35 40 37 36
20 21 21 21 21 21 20 19 19 19 19 20 21 20 18 17 16 16 16 17 17 14 13 15 16 13 14 19 18 12 10 13 8 9 11 6 1 4 7 12 17 21 24 26 24 20 17 18 15 13 9 4 7 7 6 13 12 8 5 3 7 10 9 10 11 12 12 10 11 14 13 12 10 7 4 8 14 14 8 9 18 17 17 24 34 38 36 35
21 21 21 21 21 21 21 21 20 19 19 19 21 22 21 18 16 16 16 17 17 15 13 13 14 13 14 17 15 11 15 22 16 11 11 5 5 7 7 4 10 18 23 27 28 24 20 20 17 14 9 4 7 9 8 10 9 10 7 3 4 7 9 11 11 14 14 13 16 14 11 13 9 4 4 7 10 13 10 9 16 17 19 24 31 36 35 33
21 21 21 21 21 21 22 21 21 21 20 19 19 22 23 20 17 16 17 18 17 15 14 13 13 13 14 15 12 9 17 22 18 16 15 13 11 9 10 7 5 16 22 26 28 25 21 21 21 15 7 6 9 9 11 8 6 10 9 3 3 5 6 8 10 12 13 12 12 8 9 10 3 2 4 6 6 6 8 10 12 16 21 24 28 33 33 30
20 20 20 21 21 21 21 21 21 21 21 21 19 20 22 22 19 18 18 19 17 15 14 12 12 13 13 12 6 6 14 14 13 19 21 21 17 10 8 7 4 13 21 25 27 25 23 21 22 16 5 7 9 8 11 9 5 7 8 6 8 9 8 8 9 10 9 9 10 9 8 4 5 2 4 5 5 7 10 11 13 17 21 24 26 28 26 22
20 20 20 20 20 21 21 21 21 21 22 22 21 20 20 22 22 21 18 18 17 16 13 11 12 14 13 11 8 10 11 5 4 10 16 20 17 9 7 5 4 12 19 24 27 25 23 18 20 16 3 6 10 6 8 9 6 5 6 6 7 8 9 9 9 10 8 7 11 13 7 1 4 3 3 5 7 10 12 13 15 18 20 23 23 22 19 17
20 20 20 20 20 21 21 21 21 21 22 21 21 20 20 21 24 24 20 17 17 17 14 11 10 13 14 15 22 22 10 4 6 8 10 14 14 9 9 7 5 10 17 23 26 24 21 15 18 16 4 6 9 4 6 8 6 3 4 4 2 2 6 9 9 9 9 6 8 10 5 3 6 4 2 5 10 12 13 15 16 18 20 22 20 18 17 16
22 22 21 21 21 21 21 21 21 21 21 21 21 21 21 21 23 25 22 19 17 17 16 11 10 14 14 18 29 27 16 12 15 15 13 13 13 9 10 11 7 9 14 19 24 24 22 15 16 15 6 6 6 3 5 6 4 4 3 2 2 2 4 8 6 5 8 5 7 10 4 4 7 5 4 7 13 14 15 16 17 18 20 20 20 17 15 17
24 24 24 23 22 22 21 21 20 20 21 21 21 21 21 21 22 24 23 22 20 18 17 12 11 13 14 22 29 25 20 20 20 19 17 16 15 10 10 12 9 9 13 16 20 24 23 17 15 11 6 6 2 2 4 3 2 4 3 1 2 4 4 4 3 6 8 5 11 12 5 4 4 4 6 10 14 16 17 17 17 18 19 20 19 17 15 18
24 24 24 24 24 23 22 21 21 20 20 20 20 21 21 21 23 23 22 24 23 19 16 13 13 12 14 25 28 18 14 17 17 16 15 17 16 11 9 12 11 10 12 14 16 20 22 19 13 7 5 6 3 1 2 2 1 2 4 3 2 3 2 1 3 8 7 4 11 11 4 3 3 3 7 11 14 15 15 17 18 19 20 20 18 15 15 18
25 24 24 24 24 24 23 23 22 21 21 20 20 20 21 22 23 23 24 26 24 19 16 13 12 10 10 15 15 11 12 14 11 7 8 12 13 11 9 10 12 11 12 13 14 16 19 16 11 6 5 6 4 3 3 3 2 1 4 3 3 5 3 1 4 5 3 2 8 8 3 2 2 5 9 10 15 15 14 17 18 19 20 20 18 15 14 18
25 24 24 24 24 23 23 23 22 21 21 20 20 19 20 22 22 23 23 23 20 15 13 10 6 8 12 12 11 11 9 8 8 5 6 9 10 12 12 11 12 12 12 13 13 14 15 12 9 7 4 2 4 5 5 6 6 2 3 2 2 4 3 3 3 2 2 3 6 7 4 3 2 6 11 14 17 16 15 17 17 17 18 18 17 15 14 17
24 24 24 23 24 23 22 22 22 21 20 20 20 19 19 20 21 21 20 17 10 7 8 9 5 3 10 13 13 10 7 6 6 5 6 9 10 13 14 13 12 13 14 13 12 13 13 10 7 4 3 5 6 8 7 5 5 5 5 5 2 2 3 4 3 1 2 4 6 7 6 4 3 7 13 17 19 18 16 16 16 16 16 17 17 17 15 15
24 24 23 23 23 22 21 21 21 21 20 19 18 18 18 18 16 15 12 6 6 6 3 10 15 6 3 6 7 7 8 8 6 5 6 8 10 14 16 16 13 15 14 9 8 11 11 6 5 6 7 8 7 8 6 4 7 8 6 6 5 5 4 3 2 1 1 4 6 8 8 6 7 10 13 15 15 17 16 14 14 15 16 17 18 18 14 11
25 24 23 22 21 21 21 21 21 20 19 19 17 16 14 9 6 5 3 8 10 9 8 11 22 19 13 10 8 7 7 6 6 6 6 6 10 14 18 17 14 13 10 7 8 10 11 7 7 8 7 9 8 8 6 4 7 9 6 6 4 4 5 2 2 1 1 4 5 5 6 7 10 12 14 15 13 13 15 14 15 17 17 18 19 15 10 10
25 24 22 21 20 20 20 20 20 18 18 17 15 13 9 4 3 4 3 8 15 19 19 20 23 25 25 20 14 12 10 7 8 9 7 6 9 13 17 17 12 8 7 8 8 7 10 9 7 7 8 11 10 8 7 5 5 7 6 6 4 4 4 2 1 3 2 4 1 3 4 6 11 14 15 15 12 12 17 17 18 21 20 19 19 13 8 9
24 23 21 20 20 20 20 20 19 18 16 14 12 12 11 7 6 8 8 9 16 21 24 25 26 29 33 30 28 24 13 8 12 12 9 9 11 11 14 14 10 6 7 8 7 6 8 8 7 9 8 11 9 7 9 7 5 5 4 5 5 3 1 1 1 3 2 3 1 4 5 5 7 10 13 15 14 16 22 21 19 22 22 21 17 12 10 9
24 22 20 19 19 19 20 19 18 17 16 13 13 14 13 9 7 9 9 8 15 23 25 27 28 33 36 34 32 27 15 9 13 13 11 12 13 12 13 12 9 8 9 10 10 8 6 6 9 9 9 12 9 8 10 7 4 3 3 5 4 2 2 3 2 3 3 1 1 3 4 2 3 4 7 13 17 18 17 13 11 14 18 19 15 11 11 9
24 21 19 17 18 18 19 19 17 16 16 14 14 15 12 8 6 8 8 6 10 15 19 22 25 32 36 30 21 19 19 14 12 12 11 14 14 11 10 10 10 10 10 10 10 8 4 7 13 10 11 14 11 10 12 9 6 3 3 4 4 3 2 1 1 2 0 1 2 2 2 2 3 6 7 9 14 12 7 5 9 12 15 16 12 9 11 13
24 20 17 16 16 17 18 18 16 14 14 13 14 13 9 6 6 7 5 4 7 7 8 11 16 23 27 22 13 13 15 16 18 15 10 14 17 10 7 9 9 10 11 10 8 7 3 8 16 13 11 14 12 10 12 11 7 4 5 5 5 4 1 1 2 2 2 3 1 0 5 4 2 6 9 8 11 8 8 9 15 14 14 16 12 10 12 16
22 18 15 14 15 17 17 15 12 10 10 10 11 9 8 6 6 6 4 2 5 4 2 5 9 10 12 15 16 13 6 9 20 20 13 14 18 12 7 7 5 5 11 9 4 4 3 7 13 13 12 13 11 9 11 12 8 5 6 7 6 4 2 1 1 0 3 3 1 1 6 4 2 5 8 9 13 12 10 12 16 15 16 15 13 13 15 17
19 15 13 13 14 15 14 12 10 10 8 7 8 7 6 8 7 3 4 3 4 4 5 5 6 5 6 13 22 16 3 4 11 19 19 16 18 14 7 7 5 4 7 6 4 2 6 10 10 12 14 11 11 9 8 10 8 4 6 10 8 6 5 3 1 1 1 2 1 2 2 3 3 5 4 7 13 12 11 13 15 16 18 17 16 15 17 20
16 12 11 12 12 13 13 12 11 13 11 6 6 5 6 9 8 5 4 3 2 4 5 4 5 5 5 13 26 16 1 3 5 13 22 20 17 12 6 6 7 9 8 8 7 2 6 11 10 12 13 9 8 8 8 11 7 4 7 10 9 7 7 5 3 3 2 2 5 3 3 4 4 2 2 5 12 13 13 14 14 16 20 20 19 17 19 24
13 10 10 11 11 11 12 12 12 12 12 10 9 6 6 6 7 4 2 3 2 3 3 6 6 6 8 13 21 14 3 1 1 10 22 20 16 8 3 6 7 11 10 7 6 3 3 12 14 12 10 7 6 8 12 13 5 5 9 8 6 5 4 3 3 3 0 3 8 5 6 6 4 3 3 5 9 12 13 13 13 16 21 21 20 20 22 23
11 10 11 10 11 11 10 11 12 10 10 9 8 5 3 4 5 3 3 3 0 2 3 6 6 7 11 11 11 12 6 3 2 10 16 14 14 7 3 8 9 9 6 3 6 3 2 10 13 9 6 7 9 10 13 12 8 10 10 8 6 3 2 1 0 1 2 6 6 6 8 6 5 3 5 5 7 11 13 12 13 14 18 20 19 21 22 19
12 9 10 10 10 11 10 10 9 8 8 6 3 2 2 2 3 3 4 1 2 1 2 3 5 8 11 8 5 9 7 3 3 10 10 9 12 8 5 9 8 6 6 6 7 4 4 8 7 4 7 9 9 8 8 8 12 12 8 7 7 3 2 2 1 2 6 7 2 4 7 8 7 3 4 7 6 8 14 15 15 17 20 22 20 20 19 18
14 10 10 11 11 11 10 8 7 9 8 3 1 1 3 2 3 4 2 3 2 1 3 2 5 6 8 5 3 7 5 2 5 9 8 9 9 6 5 7 7 7 8 9 8 5 5 5 2 3 10 13 11 8 5 5 9 10 8 9 8 5 5 5 5 5 6 4 2 1 5 6 7 2 1 5 2 1 7 12 16 20 23 24 22 20 18 19
16 12 10 10 11 10 8 6 6 10 6 2 1 1 3 2 3 5 3 3 1 1 4 2 0 2 6 5 3 7 4 1 6 8 8 10 8 5 4 2 4 4 5 9 8 7 5 1 3 5 7 12 13 10 8 5 8 10 10 11 10 7 7 7 7 5 3 2 1 1 3 4 4 1 0 3 0 1 3 9 17 22 23 23 22 20 19 22
17 15 12 9 9 8 7 5 6 7 2 2 1 1 3 3 2 3 2 3 3 2 3 4 5 2 7 5 2 8 5 3 6 8 8 9 9 8 6 4 3 2 6 8 6 8 8 3 7 8 4 9 12 8 8 8 8 8 6 7 7 6 5 6 7 5 3 3 2 3 3 3 2 2 1 0 3 2 2 9 16 18 19 20 19 20 22 24
18 17 13 9 6 5 6 7 7 5 3 4 2 2 3 3 2 2 1 3 4 4 6 7 4 3 6 3 3 8 6 3 6 8 7 9 9 8 8 6 4 3 9 10 3 6 8 3 4 4 3 10 10 4 8 11 9 5 2 4 6 5 3 2 1 2 2 2 2 3 2 1 1 1 2 3 5 5 5 11 17 16 18 20 19 21 23 24
19 16 10 6 5 4 6 7 5 4 6 3 2 3 3 2 3 3 3 4 3 5 9 7 1 2 4 3 4 9 6 1 7 8 5 7 7 6 6 4 3 3 7 8 2 3 7 4 2 3 3 8 11 9 10 11 8 3 4 7 4 3 3 2 1 2 1 3 3 3 2 1 1 2 3 5 6 7 7 11 17 18 20 22 21 23 23 22
19 14 7 5 4 3 4 4 4 7 6 3 2 2 1 1 3 3 3 5 3 4 7 3 1 2 2 3 3 7 7 3 6 7 5 6 6 7 8 5 4 4 5 5 2 1 5 5 2 6 7 7 9 13 12 8 6 6 7 7 4 3 1 1 2 2 3 6 3 2 3 3 4 3 5 6 8 9 9 10 15 18 20 20 21 25 27 26
17 11 6 7 4 2 1 4 8 8 5 2 2 2 0 1 4 3 2 3 3 3 5 3 3 4 2 2 1 5 6 5 6 6 6 6 4 6 10 6 4 6 5 6 4 1 4 5 3 7 11 7 5 9 10 5 2 3 7 8 4 3 4 2 2 3 4 5 3 2 3 3 5 4 6 9 11 13 12 11 13 17 18 19 20 23 28 33
15 6 5 11 6 3 3 6 9 6 3 2 2 2 0 2 6 5 3 2 3 3 4 4 4 4 3 2 1 2 3 5 6 5 5 6 3 6 11 7 5 7 6 6 5 1 2 4 3 5 6 7 6 7 10 8 1 0 6 7 3 2 4 4 2 2 4 4 2 3 3 2 4 6 8 12 14 16 16 14 12 15 18 19 20 20 24 27
12 4 5 11 4 5 7 7 6 4 2 1 1 2 2 3 6 6 4 2 3 2 2 4 4 4 3 2 1 1 1 3 5 3 3 6 3 4 9 8 8 8 6 7 5 2 1 2 3 4 2 5 7 6 8 11 7 6 8 9 5 1 1 3 2 1 1 3 2 2 3 1 2 2 6 10 12 14 17 15 11 12 17 19 20 21 22 21
10 3 4 8 7 8 8 6 3 2 2 1 1 2 3 3 5 5 2 2 3 3 3 4 4 4 3 1 2 2 1 2 4 2 2 7 6 2 7 11 11 9 6 6 5 3 2 2 3 4 4 6 5 3 6 11 12 10 8 8 7 5 3 5 5 2 1 1 2 1 2 1 2 1 4 4 7 12 15 14 12 15 20 21 20 23 24 24
7 3 4 6 6 8 5 3 0 1 1 2 3 3 5 5 4 4 4 4 3 2 2 4 4 3 2 1 2 2 1 1 3 2 2 7 7 3 9 15 16 14 8 5 5 4 2 2 3 3 4 4 3 3 7 12 12 8 8 8 7 6 7 8 6 4 3 1 1 0 1 1 2 2 3 3 7 12 15 16 17 19 21 21 21 24 28 30
6 4 3 2 6 5 1 1 0 1 2 4 6 6 6 5 4 4 5 4 2 2 2 3 3 2 1 1 3 3 2 0 2 2 2 4 4 3 13 20 19 16 9 4 5 5 3 2 3 3 3 2 1 2 2 8 9 8 9 8 7 7 6 4 2 4 4 4 3 1 2 1 2 3 1 6 10 13 15 18 21 21 20 21 24 27 30 32
6 4 3 4 7 4 1 2 1 1 2 4 6 6 6 5 4 5 4 3 2 2 2 2 2 2 2 3 3 4 3 1 1 1 1 2 0 3 15 24 20 13 9 6 6 7 4 2 4 6 5 5 5 4 4 7 8 8 8 7 7 6 5 2 2 3 5 6 7 5 4 1 2 1 5 10 12 13 14 17 20 21 21 22 24 26 28 32
5 3 4 2 7 5 2 4 4 3 3 4 5 5 5 4 5 6 6 4 4 3 2 4 3 3 4 4 4 5 4 2 1 1 1 1 1 2 12 22 17 10 10 11 12 10 4 1 4 5 6 8 8 6 5 5 4 4 6 8 10 11 10 6 3 4 6 5 7 7 3 1 0 4 9 11 12 13 14 16 18 21 23 24 24 25 29 34
3 2 3 2 5 6 5 6 7 4 3 4 4 3 3 1 3 5 5 5 5 5 4 5 4 4 4 3 2 2 2 1 1 1 2 1 0 2 6 16 16 12 12 15 17 11 1 1 4 4 5 6 5 2 3 6 7 6 8 11 11 11 11 7 4 5 5 5 5 5 3 5 6 8 11 13 14 14 14 17 20 22 24 24 25 26 29 33
3 1 2 1 2 4 6 7 6 4 4 5 3 3 3 4 4 3 2 2 4 4 5 4 4 4 3 2 2 1 1 1 1 1 2 1 0 2 3 8 12 13 12 14 17 9 1 3 5 3 3 2 1 2 2 6 11 12 11 11 10 9 11 10 7 4 5 5 5 3 5 7 9 12 14 14 15 14 14 17 21 23 22 22 26 28 28 29
4 2 2 2 2 2 3 4 5 5 6 5 3 3 5 6 5 3 1 2 3 4 4 2 3 5 5 3 2 2 1 1 2 2 3 2 1 2 4 4 3 7 9 10 11 6 2 4 4 3 3 2 1 2 2 3 6 8 11 13 12 11 12 13 8 5 6 6 3 5 9 8 8 14 16 14 15 16 17 19 21 22 21 23 30 30 26 26
6 4 3 4 4 5 6 7 5 5 6 4 3 3 4 6 5 3 2 2 3 3 5 2 3 4 4 2 3 1 2 2 3 3 3 3 2 1 3 3 2 3 6 7 5 2 2 4 4 4 4 3 1 2 4 5 4 4 7 10 13 14 14 13 8 5 6 3 1 6 11 4 4 11 14 14 18 20 21 23 24 24 24 26 29 27 23 24
8 5 6 7 6 7 8 7 5 5 5 4 3 3 3 4 5 5 3 3 4 2 3 2 7 6 4 2 1 0 2 3 3 2 2 3 3 3 2 2 2 3 6 6 4 2 3 3 4 4 4 2 2 2 3 7 7 6 4 4 8 12 12 11 7 5 4 2 2 7 8 1 2 10 14 17 22 22 22 24 26 29 30 28 25 24 23 24
11 9 8 6 4 4 4 3 3 3 3 3 3 3 2 3 4 6 6 4 5 5 3 5 8 6 3 4 3 2 2 3 3 3 3 2 1 2 1 1 1 3 6 5 3 3 3 2 3 4 5 2 2 3 4 5 5 5 4 4 7 9 8 5 4 4 6 7 8 8 5 4 7 13 16 18 21 22 22 24 26 28 32 33 29 26 25 27
14 12 9 5 3 3 3 3 3 3 2 2 4 4 3 4 4 7 6 3 3 4 3 4 8 7 5 6 6 6 8 10 10 9 7 5 5 6 5 4 3 1 4 4 2 2 3 3 3 3 5 2 1 2 5 6 6 4 2 4 5 4 2 2 2 2 5 8 9 4 2 7 13 15 16 17 18 20 23 25 26 27 29 32 33 30 28 30
Wind_Direction
315 318 319 316 312 312 314 319 320 322 325 324 326 326 326 326 326 329 327 323 318 318 320 314 311 315 311 304 301 296 288 282 275 263 256 256 253 247 239 227 223 220 225 227 221 216 207 205 206 204 202 194 196 189 181 179 169 167 170 196 210 210 200 173 173 182 176 115 254 297 329 312 313 333 269 89 86 133 158 170 176 185 213 207 181 171 165 166
307 312 315 314 313 311 311 314 315 319 321 322 323 322 325 326 326 328 323 317 315 315 318 317 314 315 315 310 306 302 294 290 282 267 256 257 257 250 238 230 228 224 221 224 226 217 208 206 202 198 192 183 183 180 180 177 174 177 148 204 219 202 182 172 182 185 222 294 311 305 317 301 299 328 268 225 123 149 163 167 172 174 169 170 171 168 167 169
299 302 307 309 311 312 312 311 311 313 316 318 318 321 324 325 327 326 324 318 316 317 317 317 314 311 313 311 309 311 306 300 290 271 253 252 254 248 240 231 227 224 222 225 230 220 212 209 204 197 184 178 176 174 179 178 180 192 182 217 224 162 142 214 215 215 243 280 302 303 308 306 310 321 279 221 167 173 188 184 174 167 157 163 169 169 169 170
292 294 298 301 304 308 309 309 309 308 310 313 315 319 320 322 326 324 323 320 317 318 315 314 313 308 313 313 312 320 321 312 289 258 241 239 244 245 242 234 227 223 222 225 228 216 206 205 199 192 184 177 172 173 180 182 178 182 194 223 189 145 193 217 222 243 264 272 276 296 302 305 327 330 280 175 180 201 210 200 189 180 172 167 169 170 170 173
288 289 291 293 295 299 302 305 307 308 309 309 311 315 317 319 320 321 319 315 315 314 311 313 313 309 310 309 311 325 333 325 255 214 212 216 225 237 240 235 228 223 220 222 220 202 191 193 185 181 184 173 163 173 189 186 178 171 208 235 107 151 202 211 218 250 276 282 281 292 300 305 316 314 275 214 218 229 219 210 207 195 181 174 171 171 172 176
290 289 287 288 289 291 294 296 300 306 309 309 310 311 313 315 316 319 317 317 319 312 310 313 314 310 307 308 310 318 304 265 184 184 189 190 210 228 240 238 229 222 217 216 211 198 184 178 176 174 176 172 176 184 185 184 187 204 220 221 189 197 210 225 243 266 279 282 281 277 291 304 302 305 288 236 233 240 245 214 208 205 185 178 174 172 174 180
294 292 287 286 285 285 287 288 290 296 302 305 308 309 309 311 315 317 315 321 324 314 310 312 316 313 305 308 308 310 274 247 219 187 186 166 249 266 258 243 230 223 215 211 204 195 185 176 176 172 166 168 189 196 177 176 190 222 226 193 212 221 225 245 259 268 272 266 272 280 287 291 285 298 280 231 237 245 264 219 209 208 182 177 175 174 178 182
293 294 291 288 285 284 284 284 285 286 290 295 300 305 306 307 311 313 312 320 325 319 314 311 317 313 305 311 315 315 272 247 229 211 204 210 311 323 318 285 229 220 212 210 204 194 185 181 180 172 173 182 185 188 172 167 186 222 224 162 195 216 226 248 258 261 265 266 276 281 274 278 279 274 230 236 252 247 242 206 204 201 178 177 177 178 182 183
293 294 293 292 289 287 285 284 283 282 285 287 291 298 302 302 305 309 311 318 323 320 317 313 310 305 301 306 316 308 269 253 242 232 230 244 269 305 323 335 244 213 206 208 206 196 184 184 184 176 187 188 176 183 180 181 194 214 216 175 201 226 235 249 252 257 261 266 274 264 259 270 245 188 226 244 261 223 195 183 184 181 174 176 179 182 185 183
295 295 294 294 293 290 288 285 283 283 283 283 285 291 296 300 301 305 310 315 318 315 311 306 302 299 294 296 307 280 263 261 250 238 239 250 261 278 297 320 276 205 199 201 201 196 189 191 189 178 179 183 178 180 181 193 199 197 206 211 234 244 252 252 248 252 256 265 251 233 260 256 150 198 251 217 223 184 168 169 170 172 173 176 179 183 185 183
298 297 296 295 294 291 289 287 284 282 282 282 282 283 289 295 299 304 308 309 312 315 305 291 296 293 283 278 252 245 260 261 239 238 239 247 254 257 244 272 269 203 195 195 196 196 194 195 190 180 167 180 176 165 180 201 205 179 178 202 232 246 254 246 247 252 246 262 242 227 255 267 169 244 256 185 189 179 167 164 168 171 172 174 178 181 184 183
304 300 298 296 295 293 290 289 285 282 282 282 280 279 282 288 295 301 304 304 307 314 304 282 286 286 279 268 247 244 258 251 249 254 243 245 244 231 213 218 235 207 196 193 194 193 193 190 185 185 180 170 165 148 189 196 190 161 152 199 215 214 239 222 231 241 218 240 235 211 229 235 207 229 239 180 179 176 168 164 166 171 173 174 178 179 182 186
307 304 302 299 297 294 291 290 287 284 282 281 279 278 279 283 292 297 303 306 305 308 303 281 271 280 277 263 255 257 272 269 261 255 242 247 243 221 209 205 200 204 198 193 193 191 189 179 175 182 175 163 158 127 159 162 162 157 150 226 219 193 220 202 209 204 194 229 198 185 223 224 213 239 223 183 179 174 167 166 167 170 173 175 178 179 183 194
307 305 303 300 299 296 294 291 288 287 284 282 280 277 276 280 286 293 305 309 302 299 296 278 262 275 267 261 269 278 282 270 258 246 240 249 248 229 210 202 186 189 191 188 192 192 190 183 176 181 180 177 164 95 122 121 153 155 148 196 215 217 214 182 179 176 189 220 183 186 241 224 219 247 204 189 184 175 168 169 171 171 174 178 180 181 187 197
309 306 302 299 299 298 295 292 289 288 285 283 280 276 274 277 282 292 304 303 295 291 287 272 256 265 269 273 283 289 274 261 251 248 250 254 252 239 214 200 184 178 179 180 188 191 192 192 188 183 188 194 199 143 130 113 117 133 180 183 174 210 230 216 187 187 200 201 183 198 234 222 269 236 190 190 186 180 175 172 175 176 177 180 181 183 190 196
308 307 304 300 297 297 296 293 291 289 288 285 281 277 274 275 284 294 300 296 290 280 271 267 252 248 267 285 292 280 258 252 253 265 252 245 244 232 212 193 182 178 173 173 178 186 189 190 189 182 185 190 189 166 136 156 158 135 210 179 149 186 211 230 181 195 225 158 185 214 219 187 265 194 175 183 186 186 185 180 180 181 181 183 183 185 192 197
311 307 305 302 298 296 294 293 292 291 291 287 283 280 275 278 289 296 297 292 283 261 247 249 238 238 253 273 284 273 267 251 252 267 230 224 222 215 203 179 175 178 166 162 166 171 174 174 177 183 191 180 170 170 173 193 186 158 193 158 136 187 197 201 170 158 223 190 194 209 212 205 176 160 171 183 186 188 190 188 187 185 185 186 186 189 195 199
318 311 306 303 299 296 293 291 290 289 290 289 286 281 278 286 294 296 294 289 273 228 229 223 199 252 252 255 269 269 269 249 237 238 225 217 202 200 197 180 172 170 157 152 159 160 159 162 168 172 190 185 180 187 189 188 166 150 166 163 153 186 202 214 202 93 179 205 198 188 198 212 158 160 185 192 187 189 193 191 189 189 189 190 192 196 199 200
317 314 309 304 301 297 291 289 288 288 289 289 287 281 283 292 293 292 289 259 174 162 221 200 190 205 269 260 284 285 269 258 251 244 230 215 198 189 188 185 176 167 159 153 165 166 155 146 169 189 195 183 180 187 174 120 140 149 159 169 160 165 190 231 246 323 206 204 200 192 195 187 164 174 199 200 189 193 196 189 189 191 193 197 199 199 199 191
311 311 310 306 302 299 292 286 286 288 288 287 290 286 287 297 290 292 250 199 207 234 261 219 205 221 258 277 294 295 276 260 253 234 213 203 194 181 178 179 172 172 175 159 161 170 167 171 195 197 180 158 161 166 145 108 147 146 148 171 161 171 184 193 235 292 280 215 207 195 192 172 167 181 201 200 189 200 201 190 194 197 199 206 205 199 191 181
305 305 308 307 303 302 295 286 284 287 288 285 287 283 276 292 283 287 267 238 258 264 258 250 234 237 255 262 262 276 296 294 253 221 207 198 182 175 174 171 168 181 179 143 132 154 180 200 196 168 147 149 154 146 127 108 140 148 154 168 171 193 182 145 246 304 304 232 188 132 180 175 172 183 196 196 192 204 201 195 200 201 204 211 208 200 195 193
302 299 302 304 302 302 297 290 285 285 289 281 272 267 264 282 279 274 287 269 271 272 260 253 247 247 254 254 252 262 283 295 260 235 213 196 189 183 171 170 176 174 153 141 134 153 197 208 159 141 141 144 144 143 142 132 135 145 150 162 168 186 205 175 238 336 338 245 151 139 185 184 171 182 192 194 197 206 204 202 203 203 206 211 207 201 208 203
302 296 296 299 300 301 299 295 287 281 286 279 264 261 265 283 277 268 283 278 279 276 260 247 240 239 245 248 250 251 247 246 253 244 214 191 194 192 175 173 174 156 159 175 171 170 198 185 146 142 142 139 144 158 158 156 160 148 144 165 162 154 213 192 176 2 10 338 25 139 176 190 149 170 202 203 206 210 206 205 209 210 213 211 205 202 200 186
303 295 289 294 298 300 299 297 289 280 283 279 265 262 266 270 258 268 279 274 282 277 259 249 239 234 238 244 245 230 221 223 234 238 217 191 183 184 185 171 156 164 178 177 172 174 168 143 143 145 147 147 152 164 166 176 187 177 174 176 151 142 190 160 32 327 328 62 46 122 177 236 168 178 202 210 214 211 177 185 223 222 216 209 201 190 191 194
304 294 284 289 295 297 299 298 292 283 276 270 264 259 251 243 249 264 268 271 273 266 262 246 232 234 235 234 230 209 210 225 230 226 208 193 185 168 169 170 165 181 173 149 157 182 166 146 151 152 157 156 154 167 175 177 179 188 209 203 182 175 170 78 10 328 196 177 94 183 222 213 156 193 200 193 207 195 140 182 222 220 209 202 194 177 183 194
305 293 280 283 291 296 301 300 294 284 264 253 256 243 215 225 267 257 215 280 276 227 182 187 201 224 217 206 198 184 185 235 232 220 195 189 191 173 151 173 183 171 155 141 156 190 158 160 164 159 157 157 159 173 180 174 174 187 189 184 189 189 159 166 297 268 206 204 112 269 238 217 147 212 209 192 199 185 156 190 212 211 206 199 190 184 187 193
307 289 273 278 287 294 301 298 289 284 267 236 216 208 220 249 266 222 183 275 271 171 137 170 191 186 185 187 176 163 149 218 216 216 202 184 184 188 181 171 167 144 139 145 183 193 144 160 179 168 159 165 172 174 181 177 174 176 160 161 173 180 173 172 175 202 259 305 227 157 229 249 216 209 202 188 197 184 167 195 204 203 206 200 193 189 189 201
309 284 269 277 286 293 300 295 284 278 278 264 213 217 284 274 244 185 176 270 220 134 122 153 172 169 170 174 172 171 300 148 166 203 195 180 176 189 207 190 163 145 154 173 182 157 137 163 177 166 166 182 174 148 159 171 166 156 159 162 168 172 176 171 183 229 357 323 243 175 150 231 225 179 125 175 199 194 183 198 207 205 205 199 195 192 194 206
310 282 272 278 288 296 298 292 281 274 279 282 268 274 309 272 227 182 205 259 160 119 114 140 144 153 145 159 182 203 285 101 162 177 178 182 182 176 190 192 156 140 162 191 172 124 152 175 170 165 174 180 152 133 158 173 165 141 148 145 146 152 151 157 209 232 15 263 246 188 164 226 229 173 170 172 198 204 194 201 210 205 205 202 195 194 198 204
316 282 277 281 290 295 295 288 278 279 283 280 275 285 296 239 215 182 204 244 143 92 115 141 142 147 147 151 193 224 252 317 57 141 161 178 183 176 133 154 152 143 151 175 167 140 123 170 169 174 177 157 147 151 167 172 140 128 137 128 122 126 107 106 206 175 215 246 241 170 172 219 242 196 179 183 196 196 190 199 211 203 202 207 202 196 195 194
331 293 281 284 292 295 295 285 274 286 289 278 284 275 234 217 218 189 181 262 336 49 92 129 134 140 154 159 189 212 232 286 128 145 154 163 176 188 156 150 155 149 148 170 180 151 118 158 170 175 158 142 140 156 172 162 141 139 143 139 136 129 126 147 138 162 225 235 199 148 176 201 228 225 183 207 208 193 192 195 198 194 196 204 203 197 193 188
340 313 290 285 287 290 291 285 282 295 285 261 9 220 191 210 224 206 232 330 324 13 27 87 141 150 166 174 180 185 201 239 172 168 163 159 170 189 187 173 163 164 174 176 169 143 142 162 157 152 163 157 148 153 166 160 160 163 155 154 161 160 163 186 189 194 222 223 77 133 178 197 231 236 183 228 230 259 226 203 192 191 195 199 198 192 188 184
340 327 309 293 287 286 288 282 282 295 285 196 350 229 199 257 231 212 262 330 29 2 348 1 64 188 179 184 182 171 178 208 173 176 167 158 161 184 234 225 155 156 163 156 153 152 153 170 172 161 167 171 166 165 171 172 179 180 167 171 177 166 174 193 196 206 225 194 95 106 162 204 237 160 140 258 120 7 269 196 186 189 191 194 194 190 185 184
340 329 318 302 293 288 278 256 259 284 281 162 269 224 212 268 274 222 245 357 10 340 321 327 325 262 183 192 177 158 177 235 183 174 164 159 166 182 205 207 175 100 113 142 164 168 164 164 175 171 156 173 178 175 162 154 173 183 167 177 185 174 188 196 194 206 198 156 121 119 169 206 187 124 74 165 127 122 158 161 167 174 178 180 184 187 187 185
342 332 319 306 296 281 257 243 251 256 184 162 163 185 218 255 302 296 352 356 351 341 318 309 295 194 173 198 188 168 189 233 180 175 168 167 174 177 180 184 190 152 143 157 172 168 165 137 159 177 149 166 175 159 141 151 175 191 142 172 193 182 166 152 201 199 140 136 156 166 208 245 150 98 96 140 143 128 132 151 153 153 161 168 176 185 187 183
343 339 323 307 295 269 250 251 254 194 161 168 176 193 232 279 314 331 358 344 339 331 319 310 234 145 154 175 180 184 207 201 166 176 165 160 167 171 172 168 180 183 157 153 138 161 162 133 149 186 174 178 173 156 165 175 169 156 183 192 179 116 113 127 112 53 87 215 196 174 186 105 188 196 138 151 154 138 143 160 160 158 160 167 175 178 174 169
348 351 350 342 318 285 263 240 196 159 165 199 212 202 243 314 308 334 354 333 319 298 312 333 61 32 135 165 168 183 194 165 162 176 161 158 165 169 174 170 170 175 152 139 125 202 166 135 143 183 184 199 179 165 181 194 154 155 193 180 115 63 40 177 176 132 184 215 206 168 179 165 188 183 142 158 163 156 164 169 167 166 166 167 170 170 168 168
347 350 4 3 341 304 288 184 167 161 169 194 237 255 22 286 305 344 359 312 312 283 306 356 18 6 70 135 146 173 179 164 165 169 159 167 175 166 170 172 174 172 160 149 137 219 185 139 135 198 189 180 170 174 186 202 205 191 178 154 137 199 202 177 182 177 188 211 215 170 159 189 206 176 157 181 181 173 173 172 171 172 170 167 163 166 171 176
346 340 342 345 329 244 198 166 163 167 173 178 228 257 344 273 302 342 35 318 307 291 316 2 7 359 27 49 54 155 173 164 159 154 158 176 190 176 173 165 168 176 169 160 151 147 187 148 154 207 194 154 158 192 192 184 203 48 161 166 183 233 194 176 175 186 190 200 213 192 168 202 211 183 181 192 187 179 177 179 179 172 169 167 161 161 166 170
353 349 338 354 9 179 176 153 150 166 189 225 233 259 297 293 305 337 40 27 318 277 309 345 341 341 3 13 24 86 142 149 156 151 160 176 174 187 187 170 159 169 163 161 170 156 143 175 166 158 163 170 179 203 191 173 168 175 181 184 182 150 165 183 161 88 210 185 177 226 229 194 157 190 210 200 186 180 179 178 172 162 163 164 159 155 153 146
356 355 350 20 75 142 149 134 147 187 200 262 281 270 289 312 314 314 350 347 289 248 278 303 296 307 330 345 8 11 36 131 167 165 141 176 187 223 204 181 157 156 154 148 169 177 150 186 178 156 176 189 171 155 171 175 179 186 187 183 182 169 152 184 193 164 53 151 148 224 261 125 93 355 279 228 183 178 177 168 155 154 158 157 154 151 143 135
356 357 352 24 99 134 128 108 210 245 211 286 313 298 291 306 306 299 313 307 273 245 269 275 271 282 282 284 347 333 330 123 172 176 129 181 200 203 186 178 160 155 157 143 162 180 149 148 165 160 175 183 146 125 185 187 180 184 194 185 181 184 183 197 203 157 125 116 99 86 301 49 69 347 292 227 179 172 169 157 147 149 150 146 143 141 138 138
2 357 9 77 148 152 110 13 7 261 253 294 308 297 283 289 293 298 307 300 294 332 307 284 299 312 297 317 333 326 325 50 181 202 152 176 204 177 170 171 163 159 162 155 162 171 156 153 172 147 124 172 159 72 186 186 173 186 202 188 183 192 191 197 164 138 175 188 156 209 254 126 40 340 230 170 162 162 161 152 144 141 138 137 138 137 138 140
357 5 52 134 176 188 321 348 359 314 278 288 293 284 271 264 262 270 282 282 289 329 308 277 299 329 339 330 311 306 307 299 194 245 210 148 75 147 163 167 167 164 173 180 169 169 168 178 186 163 145 168 176 155 185 196 192 197 190 178 183 171 140 117 114 157 204 192 173 206 231 136 30 17 154 151 150 149 148 147 143 137 133 135 136 137 139 140
358 49 64 139 191 205 279 316 317 319 314 302 288 279 267 245 237 247 258 262 249 246 260 264 276 296 299 299 286 285 281 244 181 310 306 142 46 88 159 169 170 168 182 181 164 160 171 178 184 179 167 174 182 181 183 179 181 199 176 171 184 178 168 167 154 188 210 177 174 206 212 122 108 164 155 151 147 142 137 138 140 137 136 136 135 137 140 141
2 71 44 115 187 214 257 290 302 309 318 308 288 276 269 262 277 265 259 256 242 237 253 263 279 285 265 258 276 274 267 256 225 286 5 104 111 30 148 170 173 173 180 172 156 148 144 187 177 192 187 183 186 174 131 143 163 192 188 179 186 188 182 178 181 200 188 145 180 212 141 141 183 178 167 161 153 146 140 139 140 139 139 137 137 140 142 142
12 26 13 47 201 231 248 265 272 274 293 304 312 316 311 319 320 294 251 253 254 255 259 250 244 253 256 274 314 294 285 326 227 228 12 36 187 31 110 161 175 180 177 165 157 148 116 201 185 191 200 190 157 112 115 176 185 187 182 179 186 187 185 196 206 174 136 152 197 188 142 167 187 182 179 171 158 150 144 143 142 140 139 137 139 142 142 142
8 344 344 348 305 247 263 267 246 245 268 281 302 309 302 310 313 303 264 267 269 255 250 247 227 243 271 273 268 298 299 39 52 33 16 13 17 75 97 106 160 185 174 162 166 157 149 195 190 181 175 138 131 183 187 203 194 182 178 178 180 184 193 204 202 159 166 198 204 162 172 189 189 183 183 172 159 152 143 141 140 137 137 139 141 143 142 142
4 334 322 332 306 272 292 292 264 259 267 263 266 266 285 307 305 288 253 263 299 249 212 266 325 322 321 264 198 286 315 67 55 33 21 9 6 73 117 101 90 172 166 160 172 179 195 193 176 170 164 115 33 244 192 182 176 174 187 186 180 185 197 202 192 163 181 215 23 162 175 189 195 182 174 156 149 145 140 140 139 139 142 144 144 145 144 146
1 335 314 317 298 274 284 283 262 270 275 269 273 259 265 289 291 300 282 255 303 305 187 314 334 337 345 337 165 108 4 39 38 17 11 12 18 30 62 101 88 139 154 162 178 190 217 202 151 160 179 143 27 14 169 184 178 166 184 202 185 187 196 198 182 153 151 96 73 153 156 151 191 160 148 142 142 142 144 147 147 148 150 148 146 148 149 149
357 346 327 315 297 282 283 262 234 246 256 258 259 248 248 260 289 330 323 259 264 282 276 333 341 337 336 344 6 38 28 6 327 293 301 312 326 339 344 45 34 143 149 160 178 173 196 189 119 161 191 182 29 59 122 143 143 147 174 190 185 187 190 185 163 168 169 142 131 142 152 187 171 145 139 143 145 147 153 154 153 154 156 154 152 151 152 154
356 352 338 309 283 290 289 282 261 241 238 234 231 240 258 265 304 333 325 293 274 266 266 351 359 354 339 338 355 4 346 329 308 289 277 263 271 282 267 259 283 227 157 151 146 156 174 157 130 176 186 170 7 71 114 128 139 156 190 186 188 194 168 132 121 185 181 148 143 157 171 157 152 144 146 151 154 158 161 161 160 158 157 157 156 154 155 157
Height
1511 1510 1509 1508 1507 1506 1505 1504 1503 1502 1502 1500 1500 1499 1498 1497 1495 1495 1495 1494 1493 1492 1490 1489 1488 1487 1485 1484 1482 1481 1480 1480 1480 1480 1480 1481 1483 1483 1485 1487 1487 1488 1489 1490 1491 1492 1493 1494 1495 1496 1497 1498 1499 1500 1502 1502 1503 1505 1505 1509 1508 1506 1505 1502 1503 1503 1501 1501 1501 1500 1500 1501 1499 1498 1498 1497 1497 1497 1497 1497 1496 1497 1497 1498 1500 1501 1503 1504
1509 1508 1508 1507 1506 1505 1504 1503 1502 1501 1500 1499 1499 1498 1497 1496 1495 1494 1493 1493 1491 1490 1489 1488 1487 1486 1485 1483 1481 1480 1479 1478 1477 1477 1479 1479 1479 1481 1483 1484 1485 1486 1487 1488 1489 1491 1492 1493 1494 1495 1496 1497 1498 1499 1500 1501 1502 1503 1505 1507 1502 1499 1501 1501 1502 1502 1501 1501 1499 1499 1499 1500 1499 1498 1497 1497 1497 1497 1497 1497 1496 1497 1498 1499 1500 1501 1502 1503
1508 1507 1506 1505 1504 1504 1503 1502 1501 1500 1499 1498 1497 1496 1496 1495 1494 1493 1492 1491 1490 1489 1488 1487 1486 1485 1484 1482 1481 1479 1478 1477 1475 1475 1476 1475 1476 1479 1480 1481 1482 1484 1485 1487 1488 1489 1491 1492 1493 1494 1495 1496 1497 1498 1499 1500 1500 1500 1503 1503 1498 1497 1501 1501 1501 1502 1502 1501 1500 1498 1498 1498 1498 1498 1497 1496 1497 1496 1495 1495 1494 1495 1497 1498 1499 1500 1502 1503
1506 1505 1504 1504 1503 1502 1501 1500 1500 1499 1498 1497 1496 1495 1494 1494 1493 1492 1491 1490 1489 1488 1487 1486 1485 1484 1483 1481 1480 1479 1478 1476 1473 1472 1473 1473 1474 1475 1476 1478 1480 1481 1483 1485 1487 1488 1490 1491 1492 1493 1495 1495 1496 1497 1497 1497 1498 1499 1499 1497 1495 1498 1500 1500 1501 1501 1501 1501 1500 1498 1497 1497 1497 1497 1497 1496 1497 1496 1493 1492 1492 1493 1493 1495 1497 1499 1501 1503
1504 1504 1503 1502 1501 1501 1500 1499 1498 1497 1497 1496 1495 1494 1493 1492 1491 1490 1490 1488 1488 1487 1486 1485 1483 1483 1482 1481 1479 1479 1480 1475 1469 1469 1470 1471 1472 1473 1474 1475 1477 1478 1481 1483 1485 1487 1488 1489 1491 1492 1494 1494 1495 1496 1495 1495 1496 1497 1496 1495 1496 1498 1499 1499 1500 1500 1500 1500 1499 1498 1497 1496 1496 1496 1496 1495 1495 1492 1490 1491 1493 1493 1493 1493 1494 1497 1500 1502
1502 1502 1501 1500 1500 1499 1498 1498 1497 1496 1495 1494 1494 1493 1492 1491 1490 1489 1488 1487 1486 1485 1485 1484 1482 1482 1481 1480 1479 1479 1480 1472 1466 1468 1468 1469 1470 1471 1472 1472 1474 1476 1478 1480 1483 1485 1487 1488 1489 1490 1492 1493 1494 1493 1493 1494 1495 1495 1494 1495 1497 1498 1498 1498 1499 1499 1499 1499 1499 1497 1496 1495 1495 1495 1494 1494 1491 1489 1490 1491 1493 1493 1495 1496 1496 1497 1499 1500
1500 1500 1499 1498 1498 1497 1496 1496 1495 1494 1494 1493 1492 1491 1490 1489 1488 1488 1487 1485 1485 1484 1483 1483 1482 1481 1480 1479 1478 1479 1478 1470 1466 1469 1468 1469 1469 1469 1470 1470 1472 1473 1475 1478 1480 1483 1485 1486 1487 1488 1490 1491 1492 1492 1492 1493 1495 1494 1493 1494 1496 1497 1497 1498 1498 1498 1498 1498 1497 1496 1496 1495 1494 1494 1493 1492 1490 1489 1490 1491 1491 1492 1495 1498 1498 1498 1499 1500
1498 1498 1497 1496 1495 1495 1494 1494 1493 1493 1492 1491 1490 1490 1489 1488 1487 1486 1485 1484 1483 1483 1482 1481 1481 1480 1479 1478 1477 1478 1474 1467 1467 1469 1468 1468 1469 1469 1469 1469 1470 1471 1473 1475 1477 1480 1482 1484 1485 1487 1488 1489 1489 1491 1491 1493 1494 1493 1492 1493 1495 1495 1496 1497 1497 1497 1497 1497 1496 1496 1495 1493 1493 1493 1492 1490 1488 1488 1489 1489 1490 1492 1494 1497 1498 1499 1500 1501
1496 1495 1495 1494 1493 1493 1492 1491 1491 1491 1490 1489 1489 1488 1487 1486 1486 1485 1484 1483 1482 1482 1481 1481 1480 1479 1479 1478 1478 1477 1468 1463 1466 1468 1468 1468 1468 1469 1468 1468 1469 1469 1471 1474 1476 1478 1480 1482 1483 1485 1486 1487 1488 1489 1490 1492 1492 1491 1490 1492 1494 1494 1495 1496 1496 1496 1496 1495 1495 1495 1493 1492 1492 1492 1491 1489 1488 1488 1489 1489 1490 1491 1493 1496 1498 1499 1500 1502
1494 1493 1493 1492 1491 1490 1490 1489 1489 1488 1488 1487 1487 1486 1485 1484 1484 1483 1482 1481 1481 1480 1480 1480 1479 1479 1478 1477 1479 1475 1463 1461 1464 1465 1466 1466 1467 1469 1469 1468 1468 1468 1470 1472 1475 1476 1478 1480 1482 1484 1485 1486 1487 1487 1489 1489 1489 1488 1490 1492 1492 1493 1493 1494 1494 1494 1495 1494 1494 1493 1491 1491 1492 1492 1490 1488 1488 1489 1489 1490 1491 1492 1493 1495 1498 1500 1502 1504
1492 1491 1491 1489 1489 1488 1487 1487 1486 1486 1485 1485 1485 1484 1483 1482 1482 1481 1481 1480 1479 1478 1478 1478 1478 1478 1477 1476 1477 1470 1460 1461 1463 1463 1465 1465 1466 1468 1468 1468 1467 1467 1469 1470 1473 1475 1478 1479 1482 1484 1484 1485 1486 1487 1488 1487 1487 1488 1489 1490 1491 1492 1492 1493 1492 1492 1493 1492 1491 1491 1490 1491 1492 1491 1488 1487 1488 1489 1490 1490 1491 1492 1494 1496 1499 1501 1503 1505
1491 1490 1489 1487 1487 1486 1485 1485 1484 1484 1483 1483 1482 1481 1481 1480 1479 1479 1479 1478 1477 1477 1476 1476 1477 1476 1475 1474 1468 1461 1459 1461 1462 1462 1463 1463 1464 1466 1467 1467 1467 1467 1468 1470 1472 1474 1478 1479 1480 1482 1483 1483 1484 1486 1486 1486 1487 1488 1489 1489 1490 1490 1490 1490 1490 1490 1491 1490 1489 1490 1492 1490 1489 1488 1486 1487 1488 1489 1490 1491 1492 1493 1495 1497 1499 1501 1504 1505
1489 1488 1487 1486 1485 1484 1483 1482 1482 1481 1481 1480 1480 1479 1479 1478 1477 1477 1477 1477 1476 1475 1474 1474 1474 1474 1474 1467 1457 1456 1460 1460 1460 1460 1460 1461 1462 1464 1466 1466 1466 1467 1467 1469 1472 1474 1477 1478 1479 1481 1482 1482 1483 1484 1484 1485 1487 1487 1488 1488 1489 1491 1489 1487 1488 1489 1489 1489 1487 1490 1493 1489 1485 1486 1486 1487 1488 1489 1490 1491 1493 1494 1496 1498 1500 1502 1504 1505
1487 1486 1485 1484 1483 1482 1481 1480 1479 1479 1478 1478 1477 1477 1476 1476 1475 1474 1475 1474 1473 1473 1473 1473 1473 1473 1471 1460 1453 1456 1458 1457 1457 1457 1458 1459 1460 1462 1464 1465 1466 1467 1467 1469 1472 1474 1475 1477 1479 1480 1481 1482 1482 1483 1484 1485 1486 1486 1488 1489 1490 1493 1489 1484 1487 1488 1487 1488 1486 1489 1493 1487 1483 1485 1486 1487 1488 1489 1490 1491 1493 1495 1496 1498 1500 1503 1504 1505
1485 1484 1483 1482 1481 1480 1479 1478 1477 1476 1476 1475 1475 1474 1474 1474 1473 1472 1473 1471 1471 1471 1470 1471 1471 1471 1468 1457 1452 1455 1454 1453 1454 1454 1456 1457 1459 1461 1463 1464 1465 1466 1467 1469 1471 1473 1475 1477 1478 1480 1481 1481 1482 1483 1484 1485 1485 1486 1489 1491 1493 1493 1489 1484 1485 1485 1484 1485 1486 1488 1491 1487 1483 1485 1486 1488 1489 1490 1490 1491 1493 1494 1496 1498 1501 1503 1504 1505
1482 1481 1480 1479 1478 1477 1476 1476 1475 1474 1473 1473 1472 1472 1472 1471 1470 1470 1469 1468 1468 1468 1469 1469 1468 1470 1468 1457 1451 1451 1450 1451 1452 1453 1455 1455 1457 1460 1461 1463 1464 1466 1467 1469 1471 1472 1474 1477 1478 1480 1480 1480 1482 1482 1484 1486 1487 1487 1488 1491 1494 1491 1489 1486 1483 1483 1483 1483 1485 1486 1488 1487 1484 1484 1486 1488 1489 1490 1491 1491 1493 1494 1496 1498 1501 1503 1504 1505
1480 1479 1478 1477 1475 1475 1474 1473 1473 1472 1471 1470 1470 1469 1469 1469 1468 1467 1466 1465 1465 1465 1467 1467 1467 1469 1463 1453 1449 1449 1449 1449 1450 1452 1453 1454 1455 1457 1460 1462 1463 1465 1467 1468 1470 1472 1473 1476 1477 1479 1479 1480 1480 1480 1485 1488 1488 1489 1488 1490 1494 1491 1490 1486 1482 1482 1483 1483 1483 1484 1485 1485 1483 1484 1486 1487 1487 1489 1489 1491 1493 1495 1497 1499 1500 1502 1503 1504
1477 1476 1475 1474 1473 1472 1471 1471 1470 1470 1469 1468 1468 1467 1467 1466 1466 1464 1463 1462 1462 1464 1466 1465 1467 1467 1455 1448 1449 1448 1448 1448 1449 1450 1451 1452 1453 1455 1458 1460 1462 1464 1466 1468 1469 1471 1473 1475 1476 1478 1478 1479 1478 1478 1482 1484 1483 1488 1488 1488 1492 1492 1490 1486 1481 1481 1482 1482 1482 1483 1485 1484 1484 1486 1486 1486 1487 1488 1489 1490 1493 1495 1497 1498 1500 1501 1502 1504
1475 1474 1473 1472 1471 1470 1469 1468 1468 1468 1467 1466 1466 1466 1465 1464 1463 1462 1461 1460 1460 1462 1462 1460 1461 1458 1448 1445 1448 1446 1446 1448 1448 1449 1449 1450 1452 1454 1456 1459 1461 1462 1464 1465 1468 1469 1470 1473 1476 1475 1473 1474 1475 1474 1477 1479 1479 1484 1485 1484 1486 1488 1488 1486 1482 1481 1482 1481 1481 1482 1482 1483 1485 1488 1486 1486 1488 1489 1490 1491 1493 1495 1497 1497 1498 1500 1503 1504
1473 1472 1471 1469 1468 1467 1466 1466 1465 1465 1465 1464 1464 1464 1463 1463 1462 1460 1459 1458 1457 1457 1456 1454 1453 1450 1446 1446 1446 1445 1446 1446 1446 1447 1448 1449 1450 1452 1454 1457 1460 1462 1462 1462 1465 1467 1468 1471 1471 1468 1467 1471 1474 1474 1476 1479 1479 1481 1484 1484 1485 1484 1484 1484 1482 1481 1481 1480 1479 1481 1481 1482 1485 1487 1485 1486 1489 1491 1490 1492 1493 1494 1495 1495 1498 1501 1503 1503
1471 1470 1468 1467 1466 1465 1464 1464 1463 1463 1462 1462 1462 1462 1462 1462 1461 1459 1458 1456 1454 1453 1452 1451 1450 1448 1445 1445 1445 1445 1446 1446 1445 1445 1446 1447 1449 1450 1452 1454 1457 1459 1459 1460 1464 1467 1467 1466 1464 1464 1467 1470 1474 1475 1477 1480 1480 1480 1481 1483 1486 1484 1481 1483 1482 1481 1481 1479 1479 1483 1483 1483 1485 1485 1486 1487 1490 1490 1489 1490 1491 1492 1493 1495 1498 1501 1502 1503
1469 1467 1466 1465 1464 1463 1462 1461 1461 1461 1461 1460 1460 1461 1460 1460 1460 1459 1457 1454 1449 1448 1447 1446 1447 1445 1442 1442 1443 1445 1448 1448 1444 1443 1445 1446 1447 1448 1449 1451 1453 1455 1458 1460 1462 1467 1467 1463 1462 1464 1467 1470 1474 1476 1476 1479 1481 1481 1482 1482 1485 1484 1482 1483 1482 1481 1481 1478 1479 1483 1483 1483 1485 1486 1487 1488 1488 1488 1488 1489 1489 1491 1493 1495 1499 1500 1501 1503
1466 1464 1464 1463 1462 1462 1460 1459 1459 1459 1459 1459 1459 1459 1458 1458 1458 1457 1457 1453 1445 1441 1441 1440 1440 1439 1437 1438 1440 1444 1447 1447 1443 1441 1443 1445 1445 1446 1447 1447 1450 1453 1457 1456 1457 1462 1465 1462 1462 1465 1467 1470 1475 1476 1476 1478 1480 1481 1482 1482 1483 1486 1485 1482 1482 1482 1482 1480 1480 1482 1482 1483 1486 1489 1489 1488 1487 1487 1489 1491 1492 1493 1494 1496 1499 1500 1501 1503
1462 1461 1461 1461 1460 1460 1458 1457 1457 1457 1457 1457 1457 1456 1457 1457 1457 1456 1455 1453 1445 1436 1432 1432 1433 1433 1431 1434 1438 1441 1443 1443 1441 1440 1440 1442 1443 1445 1445 1445 1449 1452 1453 1453 1455 1458 1460 1459 1462 1465 1466 1468 1473 1476 1476 1477 1481 1482 1482 1482 1483 1485 1484 1482 1483 1482 1482 1483 1482 1481 1484 1484 1485 1488 1489 1488 1488 1489 1492 1494 1494 1495 1496 1497 1499 1500 1501 1502
1459 1459 1458 1458 1459 1457 1456 1455 1454 1455 1455 1455 1455 1454 1455 1455 1455 1455 1454 1453 1444 1433 1428 1428 1429 1428 1427 1432 1436 1437 1440 1439 1437 1437 1438 1440 1441 1443 1444 1445 1447 1448 1451 1454 1457 1458 1458 1459 1461 1464 1465 1466 1471 1474 1473 1474 1479 1484 1484 1481 1481 1482 1483 1484 1485 1483 1483 1485 1483 1484 1488 1487 1485 1487 1487 1485 1487 1491 1494 1495 1494 1494 1495 1496 1498 1500 1501 1502
1456 1456 1456 1457 1456 1455 1455 1454 1453 1453 1452 1453 1453 1453 1454 1454 1454 1454 1454 1453 1442 1428 1425 1427 1426 1424 1424 1429 1432 1436 1439 1435 1431 1434 1437 1438 1440 1441 1443 1444 1444 1446 1450 1454 1457 1457 1458 1459 1459 1461 1464 1466 1469 1471 1471 1471 1477 1483 1481 1480 1481 1481 1483 1484 1484 1484 1486 1486 1485 1486 1488 1487 1487 1485 1483 1483 1485 1490 1494 1494 1492 1493 1494 1495 1497 1499 1501 1502
1454 1454 1454 1455 1454 1454 1453 1452 1452 1452 1451 1451 1451 1452 1454 1452 1453 1453 1453 1453 1438 1421 1421 1426 1425 1423 1423 1425 1428 1433 1434 1428 1427 1431 1434 1436 1439 1440 1441 1441 1442 1446 1449 1453 1457 1455 1455 1459 1460 1459 1462 1465 1466 1468 1471 1470 1475 1479 1477 1478 1482 1481 1484 1485 1484 1485 1485 1484 1485 1486 1487 1488 1487 1482 1481 1484 1485 1489 1494 1493 1490 1491 1493 1494 1496 1498 1499 1501
1452 1452 1452 1452 1453 1452 1452 1451 1451 1450 1450 1450 1450 1451 1452 1451 1453 1452 1452 1449 1430 1414 1418 1422 1423 1422 1422 1425 1427 1427 1425 1423 1424 1428 1431 1435 1438 1439 1440 1440 1440 1444 1446 1449 1454 1453 1453 1458 1460 1459 1461 1464 1463 1465 1469 1471 1473 1476 1476 1478 1480 1481 1482 1483 1483 1484 1486 1488 1486 1484 1487 1490 1486 1481 1482 1485 1485 1488 1491 1491 1489 1489 1491 1492 1493 1495 1497 1499
1451 1451 1451 1451 1451 1451 1451 1450 1450 1449 1450 1450 1450 1451 1449 1451 1452 1450 1452 1441 1417 1410 1416 1418 1421 1423 1423 1426 1427 1425 1423 1423 1423 1425 1429 1434 1435 1437 1439 1439 1440 1443 1445 1446 1449 1452 1453 1454 1456 1458 1460 1461 1462 1464 1467 1469 1470 1473 1476 1478 1479 1481 1482 1483 1485 1484 1489 1494 1487 1481 1485 1488 1485 1480 1482 1486 1485 1484 1487 1487 1486 1486 1489 1490 1491 1493 1495 1497
1450 1449 1450 1450 1450 1450 1449 1449 1449 1449 1449 1449 1449 1449 1449 1451 1449 1449 1451 1435 1413 1411 1416 1417 1420 1422 1423 1426 1427 1425 1424 1424 1423 1425 1429 1432 1434 1436 1437 1439 1441 1443 1446 1448 1449 1451 1452 1453 1455 1455 1456 1457 1461 1464 1466 1467 1469 1472 1476 1479 1482 1485 1485 1487 1488 1487 1494 1495 1483 1479 1482 1486 1487 1480 1478 1482 1478 1476 1479 1483 1483 1485 1488 1489 1490 1493 1495 1497
1449 1448 1448 1448 1448 1448 1448 1448 1448 1448 1448 1448 1448 1448 1449 1449 1446 1447 1442 1424 1414 1416 1416 1417 1421 1420 1422 1424 1424 1425 1425 1424 1424 1424 1427 1429 1433 1435 1435 1437 1440 1443 1449 1450 1450 1451 1452 1454 1455 1454 1454 1456 1460 1464 1466 1467 1467 1470 1473 1476 1484 1490 1489 1491 1493 1494 1498 1491 1481 1481 1481 1484 1487 1479 1473 1473 1470 1469 1472 1476 1479 1482 1485 1487 1489 1492 1495 1497
1449 1448 1447 1447 1447 1447 1447 1447 1447 1447 1446 1447 1447 1447 1448 1448 1444 1441 1429 1415 1418 1421 1416 1418 1420 1420 1422 1422 1421 1423 1424 1424 1423 1423 1424 1425 1430 1432 1430 1430 1432 1440 1447 1447 1449 1452 1452 1453 1454 1454 1454 1455 1457 1464 1469 1469 1467 1466 1469 1473 1482 1491 1495 1498 1496 1494 1493 1486 1484 1486 1484 1484 1480 1472 1471 1472 1471 1473 1472 1471 1475 1479 1481 1484 1487 1491 1494 1497
1449 1447 1446 1446 1445 1445 1446 1446 1446 1446 1445 1446 1447 1446 1448 1447 1439 1429 1422 1418 1422 1423 1419 1418 1418 1418 1421 1420 1419 1421 1423 1423 1422 1422 1422 1424 1429 1431 1430 1429 1428 1432 1439 1442 1448 1452 1455 1456 1453 1453 1455 1452 1453 1458 1465 1469 1465 1463 1464 1467 1475 1485 1496 1500 1495 1492 1490 1485 1486 1487 1485 1485 1476 1470 1474 1475 1474 1476 1473 1472 1475 1478 1481 1484 1488 1491 1494 1496
1448 1447 1445 1445 1444 1444 1445 1445 1445 1445 1445 1446 1446 1446 1448 1445 1433 1422 1422 1422 1422 1423 1421 1419 1418 1417 1418 1419 1417 1418 1421 1422 1421 1421 1422 1424 1428 1430 1429 1430 1430 1430 1434 1442 1447 1448 1454 1458 1452 1451 1453 1451 1450 1452 1456 1461 1462 1461 1459 1461 1467 1473 1482 1489 1485 1485 1486 1484 1487 1488 1484 1479 1474 1474 1477 1476 1476 1476 1474 1473 1474 1477 1481 1485 1489 1491 1493 1496
1447 1445 1444 1444 1443 1443 1443 1444 1444 1444 1445 1445 1445 1446 1446 1441 1433 1427 1427 1426 1424 1424 1421 1419 1418 1416 1417 1418 1416 1415 1417 1419 1419 1420 1422 1423 1425 1426 1426 1428 1430 1429 1431 1440 1446 1445 1449 1453 1448 1447 1449 1448 1451 1452 1452 1458 1463 1463 1460 1462 1465 1463 1467 1479 1483 1481 1481 1481 1484 1485 1481 1475 1473 1476 1477 1475 1476 1476 1474 1474 1475 1478 1481 1484 1488 1490 1493 1495
1447 1445 1443 1443 1443 1443 1443 1443 1443 1443 1444 1444 1444 1445 1443 1438 1435 1432 1430 1428 1428 1427 1423 1418 1414 1414 1416 1417 1416 1415 1414 1415 1418 1420 1422 1423 1424 1425 1426 1426 1429 1428 1427 1434 1444 1445 1447 1450 1448 1448 1449 1447 1449 1451 1451 1454 1459 1463 1464 1463 1461 1457 1462 1476 1486 1487 1484 1482 1480 1478 1478 1477 1475 1475 1476 1476 1476 1476 1476 1475 1474 1477 1479 1481 1484 1487 1490 1493
1446 1444 1443 1442 1442 1442 1442 1442 1443 1443 1444 1444 1444 1443 1440 1438 1435 1432 1431 1430 1429 1429 1426 1420 1414 1413 1416 1415 1414 1415 1413 1414 1416 1418 1421 1423 1424 1425 1425 1426 1428 1427 1426 1430 1439 1442 1444 1449 1449 1447 1449 1448 1448 1450 1451 1450 1452 1459 1462 1458 1457 1462 1465 1468 1478 1487 1486 1481 1478 1477 1478 1477 1474 1474 1477 1477 1477 1477 1476 1474 1474 1476 1477 1479 1482 1484 1487 1490
1445 1444 1443 1443 1442 1442 1442 1442 1443 1443 1443 1444 1444 1441 1438 1438 1435 1432 1433 1431 1430 1429 1426 1423 1418 1415 1416 1415 1414 1413 1412 1413 1415 1416 1420 1422 1422 1422 1423 1425 1426 1427 1426 1427 1434 1439 1440 1447 1451 1445 1444 1447 1447 1450 1453 1452 1451 1453 1454 1452 1456 1465 1468 1469 1475 1481 1482 1482 1478 1477 1482 1479 1470 1471 1477 1476 1474 1475 1474 1473 1473 1474 1475 1478 1480 1483 1486 1487
1445 1444 1443 1442 1441 1442 1442 1442 1443 1443 1443 1444 1444 1441 1438 1438 1435 1433 1433 1432 1431 1429 1426 1424 1422 1418 1417 1416 1415 1414 1411 1412 1413 1415 1418 1420 1420 1420 1420 1422 1425 1426 1426 1425 1431 1437 1437 1444 1450 1445 1442 1446 1447 1449 1450 1452 1453 1452 1451 1452 1454 1458 1460 1464 1468 1468 1471 1481 1480 1475 1478 1475 1464 1464 1467 1466 1466 1468 1470 1470 1470 1471 1474 1476 1479 1482 1486 1488
1445 1444 1444 1442 1441 1441 1442 1443 1443 1444 1443 1443 1442 1440 1438 1437 1435 1434 1433 1432 1431 1429 1427 1426 1425 1422 1419 1417 1416 1414 1412 1411 1412 1413 1415 1417 1419 1420 1418 1419 1422 1425 1426 1426 1431 1435 1436 1441 1446 1445 1446 1446 1446 1445 1443 1446 1451 1451 1451 1453 1455 1457 1456 1458 1464 1464 1464 1473 1479 1476 1471 1464 1460 1462 1461 1459 1461 1464 1466 1467 1470 1472 1475 1477 1480 1483 1486 1488
1445 1444 1444 1443 1442 1442 1443 1444 1444 1444 1443 1441 1440 1439 1437 1436 1435 1434 1433 1432 1430 1429 1427 1427 1426 1424 1422 1419 1416 1415 1413 1411 1411 1411 1413 1414 1416 1418 1416 1415 1418 1423 1426 1428 1430 1433 1436 1440 1443 1445 1447 1445 1442 1441 1440 1441 1444 1445 1448 1450 1450 1453 1456 1460 1466 1467 1464 1467 1474 1476 1468 1459 1461 1465 1463 1460 1461 1463 1465 1467 1470 1473 1476 1479 1482 1483 1486 1488
1444 1444 1444 1444 1444 1444 1444 1444 1444 1444 1444 1441 1440 1439 1437 1436 1435 1433 1432 1431 1429 1428 1427 1427 1425 1423 1423 1420 1418 1416 1414 1411 1409 1409 1410 1411 1411 1411 1411 1413 1415 1418 1423 1427 1428 1430 1433 1436 1440 1443 1444 1442 1440 1441 1440 1440 1440 1442 1444 1445 1446 1448 1449 1454 1461 1465 1467 1471 1473 1474 1468 1461 1463 1466 1464 1462 1462 1463 1466 1466 1469 1474 1477 1479 1482 1484 1487 1490
1445 1445 1445 1445 1445 1445 1445 1444 1444 1444 1444 1442 1439 1438 1437 1436 1435 1433 1432 1431 1429 1428 1428 1426 1424 1423 1422 1420 1419 1418 1414 1411 1410 1407 1407 1408 1408 1407 1409 1411 1414 1416 1420 1424 1426 1428 1430 1434 1439 1442 1443 1441 1440 1440 1441 1440 1442 1444 1442 1442 1444 1444 1443 1447 1452 1457 1463 1466 1468 1471 1468 1461 1463 1465 1463 1462 1464 1465 1467 1468 1470 1474 1477 1480 1482 1485 1488 1490
1446 1446 1446 1446 1446 1446 1446 1445 1444 1444 1443 1441 1440 1438 1436 1435 1434 1433 1432 1431 1429 1429 1429 1427 1424 1423 1422 1421 1420 1418 1415 1413 1411 1408 1407 1407 1407 1407 1408 1410 1413 1414 1417 1420 1422 1425 1430 1434 1437 1440 1445 1448 1446 1445 1445 1443 1441 1439 1438 1441 1442 1443 1446 1450 1453 1455 1457 1457 1459 1464 1465 1462 1464 1466 1463 1463 1465 1466 1468 1470 1472 1474 1478 1481 1483 1486 1489 1490
1446 1446 1446 1446 1447 1447 1447 1445 1444 1444 1442 1442 1440 1438 1436 1434 1433 1432 1431 1430 1429 1429 1428 1426 1424 1423 1423 1421 1420 1419 1415 1413 1411 1409 1409 1408 1407 1407 1409 1410 1412 1414 1415 1417 1419 1422 1428 1433 1433 1436 1443 1447 1446 1443 1441 1440 1440 1438 1437 1441 1442 1442 1445 1448 1452 1455 1455 1457 1457 1455 1459 1466 1469 1467 1464 1465 1466 1467 1470 1472 1473 1476 1478 1481 1484 1486 1489 1491
1447 1447 1447 1447 1447 1448 1447 1446 1445 1444 1442 1442 1440 1437 1435 1434 1432 1430 1429 1429 1428 1427 1427 1425 1423 1423 1422 1420 1420 1418 1415 1413 1412 1410 1410 1409 1408 1408 1410 1410 1412 1413 1415 1417 1418 1422 1428 1431 1430 1430 1433 1434 1433 1433 1433 1435 1439 1440 1440 1441 1442 1442 1442 1443 1449 1451 1451 1458 1459 1452 1455 1466 1470 1467 1466 1465 1465 1467 1470 1472 1474 1477 1478 1481 1484 1487 1490 1492
1448 1448 1448 1448 1447 1447 1446 1445 1445 1444 1442 1441 1439 1436 1435 1434 1432 1430 1429 1428 1427 1427 1425 1423 1422 1423 1421 1419 1419 1417 1414 1413 1412 1411 1411 1410 1409 1409 1410 1411 1412 1413 1415 1417 1418 1421 1426 1429 1430 1429 1430 1430 1430 1432 1434 1434 1434 1435 1437 1439 1442 1443 1442 1443 1446 1446 1447 1453 1456 1455 1457 1460 1462 1464 1464 1464 1464 1466 1469 1472 1474 1477 1479 1482 1484 1487 1490 1493
1449 1449 1448 1448 1447 1446 1444 1443 1443 1443 1442 1441 1439 1437 1435 1434 1433 1431 1429 1428 1427 1426 1425 1422 1421 1421 1419 1418 1418 1417 1414 1413 1412 1412 1412 1411 1410 1410 1410 1412 1413 1413 1415 1417 1418 1420 1424 1427 1429 1430 1432 1434 1434 1436 1437 1435 1433 1432 1433 1436 1439 1442 1442 1441 1442 1444 1444 1444 1446 1451 1455 1454 1454 1458 1460 1461 1464 1466 1468 1472 1475 1478 1481 1482 1484 1487 1490 1493
1450 1449 1448 1448 1447 1444 1442 1442 1441 1441 1440 1439 1438 1436 1435 1434 1432 1430 1429 1428 1427 1425 1424 1423 1420 1418 1417 1417 1417 1417 1415 1414 1414 1415 1415 1414 1412 1411 1411 1413 1414 1413 1414 1417 1419 1420 1422 1424 1427 1429 1431 1435 1437 1437 1437 1436 1435 1434 1434 1433 1434 1437 1438 1437 1440 1444 1443 1443 1445 1448 1452 1454 1453 1454 1457 1461 1464 1467 1470 1473 1475 1478 1481 1483 1485 1488 1490 1493
1452 1451 1449 1448 1446 1443 1441 1441 1440 1439 1439 1438 1437 1435 1434 1433 1432 1429 1428 1428 1427 1424 1423 1423 1420 1417 1417 1417 1416 1417 1417 1416 1417 1417 1417 1416 1414 1413 1413 1414 1414 1414 1414 1416 1419 1420 1421 1424 1427 1427 1430 1434 1437 1438 1437 1436 1434 1434 1437 1438 1435 1436 1437 1436 1440 1446 1446 1448 1453 1453 1455 1458 1455 1453 1457 1461 1464 1467 1470 1472 1475 1477 1480 1482 1485 1487 1490 1493
1453 1452 1450 1449 1446 1442 1440 1440 1439 1439 1438 1437 1436 1434 1432 1432 1431 1429 1427 1425 1425 1424 1422 1423 1421 1418 1417 1416 1415 1416 1417 1416 1417 1417 1416 1416 1416 1416 1415 1415 1415 1414 1414 1416 1418 1418 1420 1426 1429 1428 1429 1433 1437 1438 1437 1435 1435 1436 1440 1442 1439 1437 1438 1437 1441 1445 1443 1446 1455 1456 1453 1455 1454 1454 1458 1461 1463 1467 1469 1471 1474 1476 1478 1481 1483 1487 1490 1492
1452 1451 1450 1450 1446 1441 1440 1439 1438 1438 1437 1435 1434 1432 1431 1431 1429 1430 1429 1425 1423 1423 1423 1423 1422 1421 1419 1417 1415 1416 1416 1416 1416 1415 1415 1415 1415 1415 1415 1414 1415 1414 1413 1416 1418 1418 1419 1423 1428 1429 1430 1435 1439 1438 1435 1435 1437 1438 1439 1441 1441 1439 1439 1440 1442 1444 1440 1442 1448 1446 1441 1445 1450 1453 1457 1460 1462 1464 1466 1469 1472 1474 1478 1480 1482 1486 1489 1492